Lapse_Rate
6.5 6.6 6.6 6.7 6.7 6.7 6.8 7.0 7.0 6.9 6.9 6.9 6.7 6.7 6.8 6.7 6.7 6.9 7.5 6.8 6.9 6.8 6.9 6.7 6.7 6.5 6.2 6.2 6.0 5.7 4.8 5.8 6.5 6.4 6.5 6.3 6.3 6.2 6.5 6.4 6.5 6.5 6.2 6.2 6.3
6.5 6.5 6.5 6.5 6.6 6.7 6.9 6.9 6.9 7.0 6.9 6.8 6.7 6.7 6.6 6.6 6.7 7.3 6.6 7.1 7.0 6.8 6.9 6.7 6.7 6.4 6.2 6.2 6.0 5.5 5.6 6.6 6.7 6.3 6.3 6.3 6.0 6.3 5.6 6.1 6.5 6.4 6.5 6.4 6.3
6.4 6.4 6.5 6.7 6.8 6.8 6.8 6.8 6.9 7.1 7.0 6.9 6.7 6.5 6.4 6.3 6.5 7.1 6.9 6.8 6.7 6.5 6.6 6.7 6.5 6.3 6.2 6.0 6.3 6.2 6.2 7.1 6.8 6.2 6.0 6.1 6.3 5.8 5.7 6.1 6.8 5.9 5.8 6.0 6.4
6.5 6.6 6.6 6.6 6.8 6.9 6.9 7.0 7.1 7.2 7.1 7.0 6.9 6.8 6.4 6.2 6.2 6.2 6.2 6.1 6.2 6.1 6.1 6.1 6.1 6.0 6.1 6.1 6.5 5.6 6.6 6.8 7.1 6.4 5.8 6.4 6.4 6.5 6.1 6.8 6.6 6.3 5.9 5.7 6.4
6.5 6.6 6.7 6.7 6.8 6.9 6.9 6.9 7.0 7.1 7.0 6.8 6.7 6.5 6.4 6.6 7.3 5.7 5.7 5.6 5.9 6.1 6.1 5.9 5.6 5.8 5.8 6.0 5.5 5.1 6.6 6.0 6.5 6.3 6.2 5.9 6.5 6.4 6.5 7.0 6.7 6.5 6.5 5.8 6.4
6.3 6.3 6.4 6.5 6.7 6.7 6.6 6.5 6.8 6.7 6.6 6.5 6.3 6.3 6.4 6.9 6.1 6.4 6.0 5.6 5.5 5.7 5.7 5.6 5.7 5.3 5.0 5.2 4.8 5.1 4.9 5.5 5.7 6.2 5.5 5.8 6.3 5.7 7.5 7.3 6.9 6.7 6.7 6.5 6.1
6.4 6.5 6.5 6.5 6.5 6.6 6.5 6.4 6.5 6.5 6.4 6.1 5.9 5.9 6.1 6.8 5.8 5.7 5.8 5.5 5.4 5.5 5.5 5.2 5.0 4.6 4.3 4.7 4.8 5.2 4.7 4.7 5.6 6.3 5.5 5.6 5.0 6.7 7.4 6.7 6.8 6.9 6.7 6.3 6.4
6.4 6.6 6.5 6.5 6.7 6.6 6.5 6.3 6.2 6.2 6.2 6.1 5.8 5.7 5.9 6.1 5.9 5.7 5.4 5.3 5.0 5.1 5.1 5.0 4.8 4.5 4.4 4.4 4.4 4.7 4.5 4.3 5.9 6.1 6.4 5.2 4.7 6.9 6.6 6.4 6.9 6.7 6.3 6.4 6.3
6.2 6.3 6.3 6.3 6.2 6.2 6.0 5.8 5.8 5.7 5.9 5.9 5.8 5.7 5.7 5.9 5.8 5.5 5.3 4.9 4.7 4.7 4.7 4.6 4.5 4.3 4.4 4.3 4.5 4.0 4.2 4.8 5.2 6.3 5.6 5.1 4.9 6.1 6.2 6.3 6.5 6.4 6.2 6.0 5.6
6.0 6.0 5.8 5.9 6.0 5.8 5.7 5.5 5.2 5.5 5.8 5.7 5.7 5.7 5.6 5.6 5.7 5.3 5.2 4.7 4.6 4.2 4.4 4.4 4.1 3.9 3.9 4.1 3.9 4.7 4.6 5.0 5.2 6.2 5.7 5.4 5.3 5.8 5.8 5.9 6.2 6.1 5.9 5.6 5.1
5.1 5.3 5.1 4.9 5.1 5.4 5.8 5.6 5.5 5.4 5.8 5.4 5.3 5.9 5.6 5.6 5.5 5.2 4.9 4.8 4.8 4.1 4.1 4.4 3.8 3.3 4.1 5.0 5.0 5.0 5.1 5.1 5.6 6.0 5.6 5.5 5.4 5.3 6.1 5.7 5.7 5.5 5.1 5.0 5.7
4.4 4.8 4.9 4.7 4.8 4.7 4.9 4.9 5.1 4.6 5.3 5.9 6.0 5.9 5.6 4.8 4.9 4.6 4.5 4.4 4.4 4.8 4.9 3.9 3.8 4.5 4.9 4.6 4.9 4.7 4.8 5.0 5.3 6.6 5.8 5.4 4.9 5.2 5.1 5.8 5.3 4.9 5.0 5.1 5.6
4.2 4.3 4.5 4.5 4.6 4.3 4.6 4.5 4.5 4.2 4.3 5.4 5.6 5.4 5.3 5.0 4.9 4.4 4.5 4.2 4.3 4.3 4.6 4.1 4.4 4.6 4.6 4.5 4.8 5.3 5.2 5.4 5.4 5.7 5.9 5.9 5.1 5.2 5.5 4.7 4.8 5.1 4.7 5.4 5.6
4.4 4.0 4.1 4.6 4.5 4.4 4.3 4.3 4.2 3.8 4.0 4.6 4.7 4.9 5.0 4.8 5.0 5.1 4.8 4.1 4.0 4.5 4.8 3.9 4.8 5.2 4.7 4.6 5.3 4.8 5.7 5.3 5.5 5.6 5.2 6.2 4.2 5.5 5.2 4.9 4.7 4.8 5.2 4.9 4.8
4.5 4.5 4.4 4.3 4.2 4.4 4.1 4.1 3.9 3.5 2.9 4.4 4.2 4.3 4.7 4.7 4.7 4.6 4.6 4.4 4.8 4.5 4.6 5.2 4.9 5.5 5.1 5.5 6.0 5.0 5.6 5.5 5.7 5.7 5.8 5.3 5.4 4.4 5.0 5.1 4.6 4.3 4.8 4.8 4.9
4.8 4.7 4.5 4.5 4.4 4.5 4.4 4.2 3.7 4.0 2.9 4.4 4.1 4.5 4.4 4.5 5.1 5.1 5.4 5.0 5.2 4.7 4.3 4.7 5.9 5.1 5.4 5.8 6.0 5.6 5.3 5.5 5.7 5.7 4.8 4.8 5.9 5.0 5.3 5.6 3.5 4.1 4.9 4.8 4.9
4.7 4.6 4.5 4.4 4.4 4.2 4.0 3.7 3.9 3.8 5.4 3.9 3.8 3.8 4.0 4.6 5.0 5.8 6.2 6.1 6.1 6.1 5.9 6.5 5.8 6.5 5.6 5.8 5.7 6.2 5.6 5.2 5.2 5.1 4.3 6.1 6.3 5.8 5.2 3.9 4.2 5.5 4.8 4.5 4.7
4.5 4.6 4.7 4.5 4.2 3.5 3.2 3.0 3.0 4.5 4.3 3.6 3.1 3.5 3.6 4.3 5.2 5.6 5.2 5.1 5.4 6.1 6.0 6.0 5.8 6.3 6.6 5.8 6.4 6.4 6.5 6.3 6.4 6.1 5.9 6.9 6.5 5.3 5.2 4.9 4.5 4.9 4.5 4.6 4.6
4.3 4.4 4.1 3.3 2.8 2.6 2.3 2.3 3.5 3.2 2.1 2.1 3.5 3.6 4.1 4.7 4.3 4.9 5.3 5.6 6.4 7.2 7.5 7.2 6.3 6.8 7.3 6.9 6.8 6.0 6.2 6.8 7.8 7.9 7.3 7.6 5.8 4.7 5.0 4.9 4.3 4.2 4.2 4.4 4.5
3.8 3.4 3.0 2.1 1.8 1.9 1.7 2.0 2.9 2.5 2.2 2.3 2.6 2.8 2.4 2.7 4.3 5.5 5.6 6.2 6.6 6.6 6.8 6.5 6.6 6.4 7.6 7.7 6.8 6.6 7.4 6.8 6.8 6.4 6.3 6.4 5.8 5.9 5.5 4.9 4.3 4.2 4.3 4.3 4.4
3.2 3.2 2.1 1.9 1.8 1.5 1.6 1.6 2.1 2.7 2.8 3.0 3.2 4.3 5.0 5.2 5.7 5.8 6.9 6.7 7.0 7.3 7.6 7.2 7.5 7.1 8.0 7.5 7.2 7.7 7.8 7.9 7.6 8.0 7.1 7.3 6.1 6.3 5.2 4.1 4.2 4.6 4.8 4.9 4.7
2.9 2.6 2.3 1.5 1.7 1.4 1.7 2.0 2.6 2.9 3.9 4.7 5.9 6.7 7.1 7.0 7.2 6.9 6.8 7.4 7.5 7.3 6.6 7.2 7.2 7.4 7.5 8.2 7.8 7.3 7.4 7.6 7.9 8.0 8.6 8.5 6.7 5.5 5.8 5.4 5.4 5.4 5.6 5.6 5.8
2.4 2.2 1.9 1.6 1.5 1.6 2.6 3.3 3.9 4.5 5.7 6.2 6.9 7.6 8.1 7.9 7.8 8.0 7.9 8.0 7.4 7.3 7.0 7.1 7.1 6.8 7.7 8.2 8.0 6.9 6.6 6.7 7.0 7.2 7.5 7.6 6.7 5.9 5.6 5.6 5.4 5.2 5.3 5.5 5.8
2.3 2.1 2.0 2.0 2.4 3.1 3.5 4.2 4.7 5.7 6.5 7.4 7.8 8.1 8.3 8.1 8.2 7.9 8.1 8.0 7.8 7.5 7.2 7.4 7.6 7.3 7.4 7.0 6.7 6.7 6.9 6.7 6.7 6.9 7.0 7.0 5.8 5.4 5.6 5.8 5.5 5.4 5.5 5.5 5.6
2.6 2.6 3.2 3.6 4.3 4.8 4.8 5.1 5.4 5.5 6.7 7.8 7.9 7.9 7.8 7.9 8.0 8.4 8.2 8.1 8.4 8.2 7.8 7.7 7.7 7.6 7.4 7.4 7.1 7.0 6.8 6.8 6.8 7.0 6.6 6.8 6.8 6.1 5.8 5.9 6.1 6.2 6.0 5.9 6.2
3.3 3.6 4.6 5.8 6.0 6.0 5.9 5.7 6.0 6.3 7.3 7.8 7.8 8.4 8.0 7.9 7.9 7.7 7.8 8.1 7.8 8.2 7.8 7.9 7.4 7.4 7.5 7.6 7.4 7.1 7.3 7.1 6.8 6.5 6.8 6.4 5.7 5.7 6.0 6.1 6.2 6.1 6.2 6.2 5.9
4.3 5.0 5.5 6.9 6.9 6.4 6.4 6.7 6.7 6.9 7.8 7.9 7.9 7.9 8.1 8.0 7.7 7.7 7.8 8.1 8.2 8.0 8.0 7.6 7.5 7.7 7.6 8.0 8.1 7.7 6.8 6.3 5.7 5.5 6.3 5.8 5.0 5.1 4.8 5.6 5.7 5.8 6.1 6.2 6.2
Wind_Speed
20 21 22 22 23 24 25 25 25 25 24 23 22 21 20 18 19 12 14 11 12 15 7 12 13 9 7 6 9 1 4 7 12 12 12 6 3 4 4 4 2 5 3 9 14
22 22 22 23 23 24 24 25 25 25 25 24 22 21 20 19 14 17 20 20 17 21 11 19 16 13 6 9 6 7 4 8 10 12 11 6 7 7 5 8 7 6 7 13 14
21 22 23 24 25 26 26 27 27 28 27 26 23 21 18 16 9 6 16 25 14 21 14 14 12 13 9 7 10 10 9 15 13 10 4 7 9 6 8 10 9 8 13 16 14
23 24 25 25 26 27 28 28 29 28 26 24 21 18 16 7 8 4 9 15 15 16 12 13 12 12 8 13 13 8 17 17 17 13 6 8 8 11 10 13 10 10 6 15 15
25 26 27 28 29 30 30 31 32 29 27 22 18 14 8 9 12 10 11 12 10 13 15 16 16 14 9 11 13 21 19 13 14 12 13 9 12 9 14 11 9 10 11 14 14
27 28 29 31 32 32 32 33 34 31 28 23 16 8 6 16 5 7 8 9 11 14 12 12 8 13 8 13 13 8 20 20 13 16 8 11 13 5 17 10 14 14 10 9 13
27 29 31 32 33 35 36 37 34 33 32 26 16 9 11 19 3 2 8 10 8 12 10 11 12 7 6 15 10 12 9 10 13 9 9 4 11 18 21 11 12 7 8 6 9
29 30 31 34 35 36 39 38 32 29 18 10 8 11 8 1 7 10 8 9 10 7 9 8 7 8 8 10 7 5 8 12 9 18 16 11 14 15 15 16 13 10 6 6 6
29 31 33 35 36 38 39 38 32 14 8 4 8 8 6 1 4 8 9 12 8 7 5 5 4 5 7 9 8 9 9 15 16 18 4 13 4 17 2 4 6 5 7 8 7
28 30 32 34 36 39 38 40 8 1 6 6 6 3 6 2 3 2 8 9 7 6 4 5 5 7 9 9 13 10 16 16 13 8 9 10 12 10 2 4 7 6 5 1 10
29 31 32 34 36 34 23 4 6 2 5 8 11 12 4 3 4 6 8 8 9 8 8 11 8 13 17 19 17 17 19 20 15 9 9 14 12 11 12 8 9 9 8 9 10
29 31 33 36 40 30 12 5 5 5 13 16 22 20 17 7 4 8 11 10 10 13 14 9 18 16 17 18 19 20 22 21 15 15 8 9 14 10 8 9 4 10 10 10 9
28 30 32 36 35 9 7 8 6 4 7 11 5 6 3 11 10 10 11 8 11 13 17 16 9 22 19 17 18 20 18 15 15 14 13 5 10 7 8 10 11 12 11 10 10
27 30 31 39 8 12 3 11 11 3 5 4 3 2 3 4 6 11 14 6 8 13 14 15 21 23 17 18 13 20 11 14 14 10 12 7 13 4 5 9 10 10 10 9 8
26 30 31 28 8 6 10 13 10 3 8 4 5 2 3 5 4 3 5 4 14 10 5 9 8 7 19 27 21 19 8 9 8 11 4 9 5 5 16 13 13 11 10 8 8
27 29 31 10 6 8 16 12 5 2 8 3 4 0 4 8 4 4 4 3 4 10 16 17 7 3 9 6 9 0 6 3 6 3 8 11 13 6 13 20 15 12 9 8 8
30 29 21 14 6 16 11 6 3 5 2 4 4 7 11 6 6 9 7 8 8 4 9 9 23 21 9 6 3 4 6 3 4 5 10 15 12 2 4 18 18 15 10 8 7
29 34 11 5 8 11 4 3 6 5 7 13 15 20 13 9 9 11 8 13 14 14 14 8 12 17 15 21 10 14 17 6 9 7 8 11 8 5 10 14 14 13 10 9 7
27 6 6 4 9 5 5 4 4 8 11 15 21 14 11 19 18 11 10 13 11 17 17 9 16 8 4 9 15 8 18 23 12 16 4 4 4 4 10 11 10 11 10 8 8
7 6 4 9 9 6 3 6 10 17 16 14 12 11 14 16 19 18 12 16 17 24 22 7 12 17 7 1 8 10 4 8 9 9 15 9 9 3 16 14 11 9 8 8 8
4 5 3 12 5 2 2 4 13 15 16 11 19 21 19 18 14 15 9 17 18 18 20 15 7 8 8 4 10 6 6 5 6 10 3 2 1 11 13 11 11 8 8 7 7
2 4 7 5 3 3 4 13 16 16 14 17 12 10 13 18 17 12 17 9 15 11 14 8 4 5 12 16 8 8 5 8 8 10 6 9 2 7 13 12 11 9 7 8 9
5 3 4 3 4 7 12 15 7 17 15 16 12 15 14 18 12 7 10 5 5 4 6 5 3 5 10 7 1 4 6 9 9 4 11 9 5 7 10 11 10 9 8 8 9
3 4 1 1 3 11 12 12 18 12 13 15 17 14 12 11 13 8 16 10 12 12 19 8 3 5 3 8 7 9 17 14 6 5 1 2 9 8 8 9 9 8 7 9 8
2 3 4 4 7 12 12 11 16 16 13 10 7 11 17 7 12 12 13 15 14 17 6 0 8 6 8 8 9 9 11 5 4 8 7 4 8 12 9 9 7 7 8 10 9
3 3 1 8 9 11 11 7 15 17 13 13 13 21 11 6 11 18 13 12 11 9 7 3 7 13 5 12 11 7 7 12 9 12 10 15 11 9 8 10 11 9 9 11 8
2 1 2 6 6 6 6 18 18 17 7 18 16 16 13 13 12 15 16 19 17 15 17 6 3 3 5 3 4 1 15 10 13 17 6 9 6 8 6 12 9 8 9 11 12
Wind_Direction
357 354 352 348 345 343 339 335 332 328 325 322 320 319 317 315 304 260 242 231 198 192 174 170 199 205 203 211 229 190 242 242 241 240 263 117 171 216 117 285 252 164 16 116 128
357 353 349 346 343 339 336 332 328 324 320 317 315 316 319 320 297 265 242 220 198 172 181 175 184 187 198 207 195 205 217 232 242 264 285 287 184 224 189 214 234 199 112 133 144
352 349 346 342 339 335 331 327 323 320 317 315 313 315 317 324 299 257 313 199 165 175 196 188 178 180 207 189 205 208 231 228 248 276 233 268 289 271 232 250 241 245 183 166 164
349 346 342 339 335 331 326 322 319 315 310 307 305 308 310 288 259 62 90 144 162 182 220 203 195 194 213 216 205 247 229 237 260 272 287 245 255 251 263 254 234 251 298 165 174
346 343 340 336 332 328 323 319 316 312 308 302 296 296 290 229 244 265 144 153 167 191 216 203 215 197 217 216 233 222 244 255 249 249 256 281 245 252 270 266 269 251 241 168 181
348 345 341 336 332 327 321 316 313 310 303 293 282 268 240 250 277 139 168 162 179 197 215 214 218 221 263 250 246 254 236 245 255 266 257 246 267 256 256 235 245 248 247 201 173
348 345 341 335 332 328 322 315 311 308 303 287 256 219 238 239 278 26 180 186 198 201 221 230 246 260 246 263 298 291 279 291 253 256 257 241 244 237 254 249 258 252 206 241 192
350 347 342 336 331 327 320 311 306 305 303 294 211 191 245 78 280 250 203 212 216 214 243 273 267 280 271 293 283 288 259 253 246 236 234 185 245 260 253 220 232 233 198 198 188
348 344 341 337 332 329 319 310 305 291 295 189 157 207 256 208 212 215 222 214 196 224 210 242 253 230 240 230 273 229 254 236 251 254 254 187 219 244 255 117 213 209 213 173 203
346 342 340 335 331 329 318 310 289 175 239 219 273 215 234 221 100 247 196 215 179 187 189 215 207 216 208 203 221 218 238 239 244 242 179 200 240 281 260 191 209 229 273 219 63
343 339 337 334 332 327 326 346 1 211 7 278 292 263 309 74 160 218 193 189 193 181 203 195 207 216 218 223 242 264 280 281 278 286 179 218 226 222 252 255 225 227 77 72 59
341 337 336 333 332 325 322 44 49 278 297 275 264 260 259 297 284 204 170 188 196 205 213 223 225 221 224 229 238 244 252 259 273 276 204 226 234 217 227 262 41 92 74 65 57
340 335 335 333 327 322 358 35 338 355 276 293 232 273 237 207 226 214 187 199 193 213 220 227 220 216 235 248 254 252 253 262 259 290 282 305 262 249 236 101 85 77 79 69 65
341 335 338 335 322 329 73 1 338 3 295 210 212 188 128 265 234 232 206 225 219 240 237 253 245 244 229 225 225 253 247 263 259 256 257 198 273 228 115 122 117 101 90 78 67
342 337 331 328 292 314 333 338 319 249 325 96 112 69 127 232 351 195 330 254 244 235 220 234 211 221 234 240 233 249 227 247 272 254 282 236 285 225 146 163 141 113 95 88 88
340 333 326 323 305 354 332 314 283 253 250 107 115 167 227 205 234 124 213 310 317 264 264 252 268 274 229 254 234 133 180 211 259 212 245 212 210 218 182 173 132 108 93 76 71
336 327 318 299 318 326 320 291 257 210 277 57 352 347 322 270 236 186 199 195 209 204 215 237 239 241 200 256 211 214 163 194 228 202 236 178 194 64 38 128 129 120 103 87 66
331 314 309 334 345 323 307 257 230 310 4 7 348 311 277 294 275 268 217 237 224 255 281 272 270 207 206 206 189 207 189 193 215 194 235 202 214 172 94 91 99 102 97 85 72
323 301 309 38 340 319 303 247 324 24 354 339 333 331 336 340 344 332 294 283 280 269 261 267 260 229 142 187 203 227 211 228 274 282 293 180 78 65 125 117 103 99 85 70 58
319 317 30 346 329 312 298 280 329 357 352 343 322 328 336 325 327 334 330 329 9 343 346 315 308 274 311 199 242 240 315 232 226 238 245 246 170 150 170 148 122 96 80 63 49
317 333 24 337 323 279 303 326 329 335 336 336 309 304 313 324 340 324 308 317 26 341 318 315 271 296 303 171 263 245 248 242 271 231 256 265 124 304 141 117 100 84 74 63 51
333 349 354 335 330 54 330 324 326 329 318 304 319 311 310 311 309 307 294 305 355 341 331 345 304 305 298 302 348 341 337 304 259 256 242 243 168 48 94 98 103 91 78 66 55
349 302 305 312 12 346 330 329 324 320 314 315 310 303 300 303 303 307 306 294 3 345 337 325 339 331 312 248 167 263 311 259 273 263 215 231 189 117 96 87 73 81 73 76 68
356 341 298 288 334 349 329 313 321 316 314 326 308 302 297 299 295 286 300 298 336 309 301 280 263 239 295 284 276 306 323 319 315 274 270 198 151 156 131 103 93 89 75 74 64
21 17 29 318 330 314 308 314 314 323 335 325 308 320 305 296 303 293 311 311 308 297 313 40 267 247 258 257 263 271 277 313 322 339 306 81 122 142 108 101 86 73 71 62 52
334 348 290 289 285 310 318 314 327 326 336 312 329 319 314 296 297 299 317 305 276 297 286 339 276 287 261 253 257 276 12 353 40 347 38 67 44 54 87 74 55 41 50 56 48
33 159 267 282 304 314 316 327 315 328 297 325 310 314 316 308 313 291 278 269 256 267 280 250 248 288 265 301 38 359 356 352 81 26 357 47 42 41 65 70 45 27 30 35 31